Home > Weather > Lincoln > Past weeks

Flag for USA Past Weather in Lincoln, Nebraska, USA — Yesterday and Last 2 Weeks

Now
89 °F

Sunny.


Feels Like: 92 °F
Forecast: 66 / 91 °F
Wind: 9 mph from North

Location: Lincoln Municipal Airport

Current Time: Jul 27, 2016 at 6:02:23 PM

Latest Report: Jul 27, 2016 at 4:54 PM


Visibility: 10 mi

Pressure: 29.92 "Hg

Humidity: 48%

Dew Point: 67 °F

Location of LincolnLocation

Past Weather in Lincoln — Graph

°F

Lincoln Temperature Yesterday

Maximum temperature yesterday: 88 °F (at 2:54 PM)
Minimum temperature yesterday: 63 °F (at 4:54 AM)
Average temperature yesterday: 77 °F

High & Low Weather Summary for the Past Weeks

 TemperatureHumidityPressure
High99 °F (Jul 21, 4:54 PM)97% (Jul 26, 4:54 AM)30.19 "Hg (Jul 26, 4:54 AM)
Low60 °F (Jul 16, 2:54 AM)35% (Jul 25, 2:54 PM)29.71 "Hg (Jul 23, 6:54 PM)
Average80 °F70%29.96 "Hg
* Reported Jul 12 4:54 PM — Jul 27 4:54 PM, Lincoln, Weather by CustomWeather, © 2016

Note: Actual official high and low records may vary slightly from our data, if they occured in-between our weather recording intervals... More about our weather records

Advertising

Lincoln Weather History for the Previous 24 Hours

Scroll right to see more
 ConditionsComfort  
Time TempWeatherWind HumidityBarometerVisibility
4:54 PM
Wed, Jul 27
89 °FSunny.9 mph48%29.92 "Hg10 mi
3:54 PM88 °FPassing clouds.8 mph50%29.94 "Hg10 mi
2:54 PM87 °FPassing clouds.9 mph51%29.95 "Hg10 mi
1:54 PM87 °FSunny.13 mph48%29.96 "Hg10 mi
12:54 PM86 °FSunny.10 mph46%29.97 "Hg10 mi
11:54 AM85 °FSunny.9 mph48%29.97 "Hg10 mi
10:54 AM82 °FSunny.10 mph53%29.98 "Hg10 mi
9:54 AM80 °FPartly sunny.8 mph56%30.01 "Hg10 mi
8:54 AM76 °FSunny.9 mph74%29.99 "Hg10 mi
7:54 AM75 °FSunny.7 mph76%29.93 "Hg10 mi
6:54 AM74 °FClear.7 mph79%29.89 "Hg10 mi
5:54 AM71 °FClear.9 mph84%29.87 "Hg10 mi
4:54 AM71 °FClear.12 mph87%29.90 "Hg10 mi
3:54 AM73 °FClear.10 mph79%30.01 "Hg10 mi
2:54 AM73 °FClear.6 mph76%30.01 "Hg10 mi
1:54 AM71 °FClear.3 mph81%29.99 "Hg10 mi
12:54 AM74 °FClear.No wind71%29.98 "Hg10 mi
11:54 PM
Tue, Jul 26
76 °FClear.No wind67%29.99 "Hg10 mi
10:54 PM77 °FClear.8 mph64%29.99 "Hg10 mi
9:54 PM79 °FClear.8 mph60%29.98 "Hg10 mi
8:54 PM80 °FSunny.10 mph58%29.97 "Hg10 mi
7:54 PM83 °FSunny.12 mph51%29.97 "Hg10 mi
6:54 PM85 °FSunny.13 mph48%29.96 "Hg10 mi
Weather by CustomWeather, © 2016

See weather overviewHow to use our weather pages